Flag for Canada Weather past 2 weeks in Sherbrooke, Quebec, Canada

45 °F


Feels Like: 43 °F
Forecast: N/A
Wind: 3 mph from West

Location: Sherbrooke

Current Time: Oct 8, 2015 at 6:44:31 PM

Latest Report: Oct 8, 2015 at 6:00 PM

Visibility: 9 mi

Pressure: 30.16 "Hg

Humidity: 61%

Dew point: 32 °F

Location of SherbrookeLocation

Historic Weather in Sherbrooke — Graph


Sherbrooke temperature yesterday

Maximum temperature yesterday: 59 °F (at 1:00 PM)
Minimum temperature yesterday: 43 °F (at 3:00 AM)
Average temperature yesterday: 50 °F

Past Weeks' High & Low Weather Summary

High72 °F (Sep 23, 5:00 PM)100% (Sep 23, 10:00 PM)30.61 "Hg (Sep 23, 10:00 PM)
Low28 °F (Oct 4, 5:00 AM)30% (Sep 24, 4:00 PM)29.91 "Hg (Oct 7, 3:00 PM)
Average49 °F80%30.27 "Hg
* Reported Sep 23 5:00 PM — Oct 8 5:00 PM, Sherbrooke, Weather by CustomWeather, © 2015

Note: Actual official high and low records may vary slightly from our data, if they occured in-between our weather recording intervals... More about our weather records


Sherbrooke weather history for previous 24 hours

Time TempWeatherWind HumidityBarometerVisibility
5:00 PM
Thu, Oct 8
50 °FSunny.12 mph50%30.15 "Hg9 mi
4:00 PM52 °FSunny.9 mph44%30.15 "Hg9 mi
3:00 PM52 °FPassing clouds.13 mph50%30.15 "Hg9 mi
2:00 PM50 °FPassing clouds.12 mph54%30.16 "Hg9 mi
1:00 PM50 °FPassing clouds.14 mph50%30.18 "Hg9 mi
12:00 PM48 °FSunny.7 mph58%30.19 "Hg9 mi
11:00 AM46 °FSunny.12 mph62%30.19 "Hg9 mi
10:04 AM45 °FPartly sunny.6 mph71%30.19 "Hg9 mi
9:00 AM43 °FSunny.6 mph76%30.18 "Hg9 mi
8:00 AM36 °FSunny.2 mph93%30.17 "Hg9 mi
7:00 AM34 °FClear.3 mph93%30.16 "Hg9 mi
6:00 AM32 °FClear.5 mph93%30.14 "Hg9 mi
5:00 AM34 °FClear.No wind87%30.12 "Hg9 mi
4:00 AM32 °FClear.2 mph100%30.11 "Hg9 mi
3:00 AM36 °FClear.3 mph93%30.09 "Hg9 mi
2:00 AM36 °FClear.5 mph93%30.09 "Hg9 mi
1:00 AM39 °FClear.3 mph93%30.07 "Hg9 mi
12:00 AM43 °FOvercast.3 mph81%30.06 "Hg9 mi
11:00 PM
Wed, Oct 7
46 °FPassing clouds.5 mph71%30.04 "Hg9 mi
10:00 PM48 °FPassing clouds.6 mph76%30.02 "Hg9 mi
9:00 PM48 °FMostly cloudy.6 mph87%29.99 "Hg9 mi
8:00 PM52 °FPartly cloudy.5 mph82%29.97 "Hg9 mi
7:00 PM54 °FCloudy.5 mph82%29.95 "Hg9 mi
6:00 PM55 °FMostly cloudy.3 mph77%29.93 "Hg9 mi
Weather by CustomWeather, © 2015

See weather overviewHow to use our weather pages